Location: Alvis C Story Elementary School
(33.0968°N, 96.6364°W)
Time: 13:36:27
(UTC+00:00)

Lacrosse 5 rocket - Pass Details

Date: 29 June 2022
Orbit: 456 x 628 km, 57.0° (Epoch: 17 August)

Event Time Altitude Azimuth Distance (km) Brightness Sun altitude
Rises 05:11:44 0° 317° (NW) 2,645 5.8 -30.7°
Reaches altitude 10° 05:13:53 10° 314° (NW) 1,783 4.6 -30.8°
Enters shadow 05:15:20 21° 309° (NW) 1,236 3.6 -30.9°
